Wind_Speed
16 20 18 26 26 24 21 19 21 27 31 27 26 29 32 29 20 23 23 21 23 22 20 25 26 27 27 24 21 15 11 9 8 9 12 13 14 12 14 20 25 28 30 33
25 9 10 23 23 20 19 19 22 27 27 18 23 27 21 20 22 26 22 24 20 19 22 29 28 28 24 21 17 11 9 8 7 8 10 9 10 10 12 14 20 24 28 31
10 16 22 21 12 19 17 18 21 20 19 23 25 24 23 26 28 26 26 22 23 23 29 28 27 22 21 19 13 10 9 6 4 7 7 5 5 6 5 7 11 18 23 28
16 13 3 12 26 23 19 23 21 19 21 22 23 24 25 26 28 29 24 25 23 26 30 27 22 19 18 14 11 9 8 6 4 4 5 3 3 4 2 2 5 10 17 22
6 13 23 2 12 20 23 28 14 16 20 20 22 22 22 23 25 19 22 26 29 28 26 21 19 17 14 12 10 8 7 7 5 2 3 4 4 5 3 2 3 8 13 17
9 5 5 8 18 23 22 17 20 22 23 20 21 23 24 23 23 22 25 24 24 24 21 20 17 13 11 12 9 8 9 9 6 4 3 4 6 6 5 5 5 3 6 8
17 12 15 18 17 21 14 18 29 25 21 20 21 21 24 24 25 23 23 20 19 20 21 20 15 11 10 10 10 8 9 10 9 6 5 5 6 9 8 7 8 5 2 2
6 9 10 22 19 19 30 30 28 25 22 20 20 21 22 23 23 24 23 22 21 19 18 16 12 9 9 10 8 7 8 9 8 7 5 4 5 8 7 9 10 9 7 4
12 17 31 28 30 30 29 25 24 23 21 18 17 19 20 21 21 21 21 21 20 19 18 15 10 9 9 8 7 7 8 9 7 6 7 7 7 7 7 6 8 10 10 10
27 18 22 24 25 23 24 26 26 26 22 20 17 17 18 19 18 18 18 18 18 18 18 15 12 8 5 4 5 6 8 9 8 6 5 8 9 9 9 8 7 6 6 8
28 25 19 15 18 21 22 23 26 25 22 20 17 16 16 17 16 15 15 15 15 16 17 17 15 13 9 3 2 3 5 7 7 7 7 7 9 9 9 10 10 10 9 8
20 17 17 17 21 21 23 24 24 24 22 20 17 15 15 15 15 14 12 12 12 13 13 15 16 16 15 12 7 3 2 3 5 5 5 6 9 9 10 10 10 11 13 13
14 16 19 17 20 19 21 22 22 21 21 21 19 17 15 15 14 14 12 10 9 9 9 10 12 15 17 18 18 17 15 13 12 11 11 11 10 11 13 15 17 16 16 16
17 18 18 18 20 20 20 22 22 21 20 19 19 18 17 16 15 14 12 10 7 6 5 5 8 11 13 15 17 19 18 17 17 17 17 17 17 17 17 17 16 17 17 18
15 20 19 20 22 22 21 20 21 21 21 21 20 20 19 17 17 16 14 12 9 6 4 1 3 7 9 11 13 15 17 17 16 14 17 17 17 17 18 19 20 19 18 19
16 20 20 19 21 22 23 23 22 23 21 20 21 18 18 19 19 18 17 16 14 11 8 6 4 4 5 7 8 8 8 10 10 10 11 12 13 14 15 16 17 19 19 20
17 19 21 20 21 22 24 26 26 22 23 23 22 22 21 19 20 22 20 19 19 16 14 12 11 9 7 6 5 5 4 3 4 4 6 8 9 11 14 16 18 20 22 23
19 22 23 24 24 25 25 27 28 27 24 23 25 25 23 24 19 22 24 24 24 22 20 18 17 15 14 12 10 8 7 5 3 2 4 6 9 12 14 17 20 22 24 26
23 27 29 31 30 30 31 31 29 28 29 27 26 25 25 27 26 23 25 27 27 28 25 24 23 21 19 18 16 15 13 11 9 8 8 9 10 12 15 18 20 23 26 28
25 29 33 36 36 37 36 34 33 33 31 29 28 29 29 27 28 29 28 29 27 28 31 31 28 28 25 23 22 20 19 17 15 13 12 13 14 15 17 19 22 25 27 30
30 34 36 36 36 38 40 38 40 39 32 32 33 32 31 28 30 31 33 31 27 28 34 38 33 32 32 29 28 26 24 22 21 19 18 17 17 18 20 22 24 26 29 31
35 38 37 37 39 40 40 39 41 39 35 33 31 33 34 35 31 33 34 34 31 32 35 39 38 37 38 36 33 32 29 27 26 24 23 22 22 21 22 24 26 28 30 33
43 42 42 44 44 43 42 40 37 37 36 35 34 32 34 36 39 37 36 33 36 34 34 39 39 41 43 41 38 37 35 33 31 29 27 26 26 25 25 25 27 30 32 34
45 47 50 50 49 48 46 43 42 40 42 41 39 35 33 34 39 39 37 36 38 39 37 37 40 43 45 45 43 42 40 38 35 33 31 30 29 28 28 28 28 31 33 35
48 49 48 47 49 50 50 48 47 46 43 43 44 42 39 36 36 35 38 37 36 39 42 41 38 42 46 47 47 45 44 42 39 37 34 32 31 31 30 31 30 31 34 36
47 46 46 46 47 48 49 49 50 47 44 44 43 40 39 39 38 36 38 39 38 37 41 42 41 36 42 49 46 45 45 44 42 40 37 34 33 32 32 31 32 32 35 37
46 46 46 47 46 45 46 47 48 49 44 40 40 38 38 38 38 37 38 41 43 41 40 40 42 37 35 43 50 46 45 45 43 40 38 35 34 33 32 32 32 33 35 38
Wind_Direction
310 304 298 293 296 303 290 290 269 305 304 327 317 322 328 322 327 323 327 334 336 339 335 321 323 322 318 312 318 312 305 298 292 301 314 304 303 291 263 249 237 232 234 235
310 315 300 301 306 292 286 303 291 291 308 320 326 324 325 326 326 335 342 339 339 335 318 326 325 319 321 327 330 326 331 320 322 324 312 301 307 301 275 254 246 236 231 233
297 327 306 295 330 318 313 312 317 304 328 333 332 332 338 341 333 336 336 331 328 319 324 329 320 320 332 343 345 344 338 341 337 339 324 287 305 287 279 267 247 240 235 232
294 333 344 326 316 305 310 327 323 324 331 326 329 341 344 331 322 332 329 326 324 319 321 324 317 331 345 348 346 346 344 341 321 340 336 269 295 298 310 307 246 238 235 230
285 297 299 134 317 313 318 328 316 321 332 330 334 337 335 323 316 314 314 310 309 312 319 316 318 337 344 342 340 338 340 336 328 314 311 260 257 294 297 350 231 230 239 238
291 297 268 303 307 311 315 317 337 332 330 327 331 332 338 337 336 321 312 311 309 310 315 313 315 332 334 333 339 345 334 337 339 330 281 283 250 265 283 295 308 300 265 257
271 260 278 311 296 313 319 325 327 322 319 323 328 332 340 341 340 339 337 332 327 318 312 310 314 321 319 320 328 348 340 341 338 345 327 293 277 265 261 271 291 315 304 254
238 239 270 321 314 299 316 322 322 321 318 319 326 333 337 341 346 351 351 350 345 341 328 317 313 308 298 302 319 329 330 329 338 343 345 325 304 300 293 271 274 281 293 301
269 280 299 304 312 310 316 318 317 317 313 319 324 329 334 341 348 354 358 1 359 358 353 343 316 300 302 308 317 310 311 306 327 333 331 323 320 335 351 335 299 287 288 288
284 314 304 297 304 315 317 316 319 319 317 318 316 322 329 337 346 352 358 5 9 12 11 8 5 344 329 334 311 308 299 302 312 309 318 322 329 343 2 351 347 340 320 296
294 306 304 303 316 319 315 311 311 315 314 308 310 313 323 329 339 346 354 2 11 19 27 30 26 26 28 11 341 348 330 326 324 322 328 327 330 344 346 341 341 342 337 330
306 310 307 322 327 326 316 311 308 312 313 308 307 306 312 319 328 334 345 354 4 17 33 42 47 52 54 57 63 56 18 4 359 3 360 352 347 359 350 353 351 351 341 345
322 313 314 315 324 323 316 309 307 310 312 306 307 308 302 307 314 319 328 338 351 6 27 51 59 69 75 76 78 79 79 80 77 70 64 56 51 48 42 33 30 26 12 11
324 318 317 308 316 319 317 316 315 313 313 311 308 302 300 295 301 303 308 314 324 341 7 51 74 81 88 86 89 92 92 89 84 84 82 75 67 61 56 50 41 33 18 12
319 322 316 309 314 316 318 318 317 315 314 313 314 310 299 291 289 291 291 292 291 292 296 315 109 108 105 106 101 97 99 94 87 79 77 73 65 56 48 42 37 35 25 13
315 325 321 321 317 318 320 324 322 317 314 308 308 312 301 292 285 280 280 277 276 270 262 248 226 181 154 136 123 115 110 103 96 83 70 63 53 45 38 35 30 24 20 14
310 320 323 320 322 322 325 326 323 318 312 310 308 307 312 300 286 281 274 269 267 263 257 250 243 233 221 206 192 176 163 134 107 79 56 42 32 27 21 17 15 12 10 6
313 315 323 327 325 324 326 326 327 321 315 306 303 302 299 305 287 278 273 266 261 259 256 252 249 246 241 238 234 231 231 237 255 307 348 358 1 2 1 2 2 1 359 357
308 318 324 326 327 326 325 324 326 325 319 308 303 302 297 295 299 283 267 266 261 259 257 252 250 250 247 247 247 248 251 255 264 280 299 315 327 336 343 346 349 350 353 352
306 318 320 320 320 324 321 321 323 320 317 307 300 296 300 294 291 291 285 266 258 256 252 251 249 250 250 250 253 254 256 260 265 273 284 297 309 319 326 334 338 341 344 346
300 310 316 317 316 318 320 317 315 316 316 305 299 300 298 294 289 289 286 288 275 254 256 254 251 249 251 250 252 254 256 260 264 269 277 285 295 305 314 322 327 333 337 338
299 305 309 311 311 312 315 311 310 316 314 308 302 294 293 292 290 288 288 289 282 265 247 255 253 250 252 251 250 253 255 257 261 266 273 281 289 296 303 311 319 325 330 332
302 306 307 309 310 310 309 310 312 312 307 306 304 298 294 292 286 285 286 289 283 281 265 248 247 251 252 252 250 252 253 255 259 264 270 276 283 290 297 304 311 318 323 327
301 304 307 307 306 306 306 309 310 308 308 307 303 301 295 292 290 292 292 287 286 284 277 271 254 241 250 250 250 251 253 254 257 261 266 273 279 285 292 299 306 312 318 323
294 295 296 298 300 302 304 305 304 305 306 303 304 303 301 295 289 292 292 290 286 287 285 276 270 253 239 247 249 251 252 254 257 260 264 270 276 282 288 294 301 307 313 319
293 294 295 294 294 295 297 299 299 300 301 302 300 300 299 297 292 286 285 287 284 289 292 282 272 269 258 241 245 251 252 253 256 259 263 268 273 279 285 292 297 304 310 316
291 291 291 291 292 294 295 296 297 299 302 301 299 300 299 297 297 295 292 288 286 284 286 292 278 271 269 261 243 243 251 253 254 258 261 266 271 276 282 289 295 302 309 314
Height
3137 3133 3131 3127 3125 3122 3119 3116 3113 3102 3100 3098 3094 3088 3083 3078 3073 3070 3066 3062 3059 3054 3051 3048 3044 3040 3035 3032 3029 3026 3025 3024 3025 3024 3022 3021 3020 3021 3021 3023 3026 3029 3033 3036
3128 3126 3125 3121 3118 3116 3113 3110 3106 3103 3098 3095 3090 3087 3082 3076 3070 3066 3062 3058 3055 3051 3049 3044 3040 3035 3032 3029 3026 3024 3023 3023 3022 3021 3020 3019 3018 3018 3017 3017 3020 3022 3025 3027
3124 3123 3121 3116 3112 3110 3108 3106 3103 3098 3096 3090 3087 3083 3077 3071 3067 3063 3059 3055 3052 3049 3046 3042 3037 3033 3029 3027 3024 3023 3022 3020 3020 3019 3018 3018 3017 3016 3015 3014 3014 3016 3018 3020
3126 3122 3119 3110 3107 3106 3105 3102 3098 3093 3090 3087 3084 3079 3073 3070 3066 3061 3057 3053 3049 3046 3043 3039 3034 3030 3029 3026 3024 3022 3020 3019 3018 3017 3017 3017 3016 3015 3014 3012 3011 3011 3012 3013
3129 3124 3115 3108 3105 3103 3100 3097 3095 3093 3087 3084 3080 3076 3074 3069 3065 3060 3056 3052 3047 3043 3039 3035 3031 3029 3028 3025 3024 3022 3020 3018 3016 3015 3015 3015 3014 3013 3013 3011 3009 3008 3008 3009
3128 3126 3117 3106 3103 3102 3099 3093 3090 3088 3085 3082 3079 3075 3071 3066 3061 3057 3053 3048 3043 3039 3035 3031 3029 3027 3026 3023 3022 3020 3019 3017 3015 3013 3012 3012 3011 3010 3011 3010 3008 3007 3006 3007
3124 3123 3108 3104 3101 3100 3099 3098 3090 3087 3085 3081 3077 3074 3069 3064 3059 3055 3049 3044 3039 3035 3031 3028 3026 3025 3023 3021 3020 3019 3017 3016 3015 3013 3011 3010 3008 3007 3008 3008 3007 3006 3004 3004
3119 3117 3106 3101 3101 3100 3096 3090 3087 3083 3080 3077 3074 3071 3067 3062 3058 3053 3048 3043 3037 3033 3028 3024 3022 3021 3020 3019 3018 3017 3015 3014 3013 3012 3010 3008 3007 3005 3005 3005 3005 3004 3003 3002
3116 3107 3102 3099 3097 3095 3090 3088 3085 3081 3077 3074 3071 3068 3065 3061 3057 3053 3048 3043 3038 3032 3028 3023 3019 3018 3017 3017 3016 3016 3014 3012 3011 3010 3009 3007 3006 3005 3004 3003 3002 3001 3001 3000
3106 3102 3100 3098 3094 3090 3087 3082 3078 3074 3072 3070 3067 3065 3062 3059 3056 3052 3048 3043 3039 3033 3028 3023 3018 3014 3014 3014 3013 3013 3012 3011 3009 3008 3007 3006 3005 3005 3004 3002 3000 2999 2999 2997
3096 3093 3094 3092 3090 3086 3082 3078 3074 3071 3069 3067 3064 3061 3059 3057 3054 3051 3047 3044 3040 3035 3030 3025 3019 3015 3012 3011 3011 3010 3010 3009 3008 3007 3006 3005 3004 3004 3002 3001 2999 2997 2996 2996
3091 3090 3088 3085 3083 3081 3077 3074 3070 3067 3065 3062 3060 3058 3056 3054 3052 3049 3046 3044 3040 3037 3032 3028 3023 3018 3014 3011 3010 3009 3008 3008 3008 3007 3005 3004 3002 3001 2999 2998 2997 2996 2993 2992
3089 3085 3082 3081 3080 3078 3075 3071 3068 3064 3061 3058 3056 3054 3052 3050 3049 3047 3045 3043 3040 3037 3034 3030 3026 3022 3018 3015 3012 3010 3009 3007 3007 3006 3005 3004 3002 3000 2998 2997 2994 2993 2991 2990
3083 3080 3079 3078 3075 3073 3069 3065 3062 3060 3058 3055 3052 3050 3048 3047 3046 3044 3043 3041 3039 3037 3035 3032 3029 3025 3022 3019 3017 3014 3013 3011 3009 3008 3006 3005 3004 3002 3000 2999 2996 2994 2991 2989
3080 3078 3076 3073 3070 3068 3066 3063 3060 3056 3052 3050 3048 3045 3044 3044 3042 3041 3040 3038 3037 3035 3033 3031 3029 3027 3024 3022 3020 3017 3015 3013 3012 3011 3008 3006 3004 3002 3000 2998 2997 2995 2993 2990
3077 3074 3071 3069 3066 3063 3060 3057 3054 3050 3048 3045 3042 3042 3040 3037 3036 3036 3035 3035 3034 3033 3031 3029 3028 3026 3023 3022 3019 3018 3016 3014 3012 3011 3010 3007 3005 3003 3001 2998 2996 2993 2991 2988
3072 3070 3066 3064 3061 3057 3053 3049 3046 3045 3042 3039 3036 3034 3032 3031 3030 3029 3028 3028 3028 3028 3027 3026 3025 3023 3022 3020 3019 3017 3015 3013 3011 3009 3007 3006 3004 3001 2999 2996 2993 2990 2987 2983
3065 3063 3060 3057 3054 3051 3048 3044 3041 3038 3036 3034 3031 3028 3026 3024 3023 3022 3022 3022 3021 3020 3021 3021 3020 3020 3018 3016 3015 3014 3012 3010 3008 3006 3004 3002 3000 2998 2995 2992 2989 2986 2983 2979
3059 3056 3053 3050 3047 3044 3041 3038 3035 3032 3028 3026 3023 3020 3019 3016 3015 3013 3011 3010 3013 3014 3014 3012 3013 3013 3012 3011 3010 3008 3007 3005 3004 3002 3000 2998 2996 2993 2991 2988 2985 2981 2977 2973
3052 3050 3047 3042 3039 3036 3032 3030 3027 3025 3022 3018 3015 3013 3010 3007 3005 3003 3001 3000 3001 3003 3003 3003 3004 3003 3004 3004 3003 3002 3001 3000 2998 2997 2995 2993 2991 2989 2986 2982 2979 2976 2971 2967
3045 3042 3039 3036 3033 3029 3025 3023 3019 3016 3014 3010 3008 3006 3002 2999 2996 2994 2990 2989 2991 2992 2992 2992 2994 2994 2993 2994 2994 2993 2992 2992 2991 2990 2988 2986 2984 2982 2979 2976 2973 2969 2965 2960
3036 3033 3030 3028 3024 3020 3017 3013 3009 3006 3003 3000 2997 2994 2992 2990 2987 2983 2982 2979 2977 2976 2976 2977 2981 2983 2983 2983 2984 2983 2983 2983 2982 2981 2980 2978 2977 2974 2972 2969 2966 2962 2957 2953
3023 3020 3018 3015 3011 3008 3005 3003 2999 2994 2991 2988 2985 2983 2981 2979 2976 2973 2970 2970 2965 2964 2962 2962 2966 2968 2968 2969 2971 2971 2972 2972 2972 2971 2971 2970 2968 2966 2963 2960 2958 2954 2950 2945
3009 3006 3003 3001 2997 2994 2991 2989 2987 2983 2979 2976 2973 2972 2969 2966 2961 2961 2960 2957 2954 2951 2949 2948 2947 2951 2952 2954 2956 2958 2958 2960 2961 2961 2960 2959 2959 2957 2955 2951 2948 2945 2941 2936
3000 2997 2994 2990 2986 2982 2979 2976 2973 2970 2967 2963 2959 2957 2956 2954 2951 2950 2946 2943 2941 2939 2935 2935 2933 2934 2936 2938 2941 2944 2945 2947 2948 2949 2949 2949 2948 2947 2945 2942 2939 2936 2932 2927
2987 2984 2981 2978 2974 2971 2968 2964 2960 2958 2956 2951 2946 2942 2939 2938 2936 2935 2932 2930 2927 2926 2924 2922 2921 2921 2921 2922 2926 2929 2931 2933 2935 2936 2937 2937 2937 2936 2934 2932 2929 2926 2922 2917
2972 2970 2966 2963 2962 2959 2956 2951 2947 2944 2942 2940 2934 2932 2927 2923 2919 2918 2917 2915 2913 2911 2910 2909 2908 2908 2908 2909 2910 2914 2917 2918 2921 2923 2925 2926 2926 2925 2923 2922 2919 2915 2911 2906